Location: St. Louis
(38.6270°N, 90.1994°W)
Time: 20:49:13
(UTC-05:00)

EO-79 - Visible Passes

Search period start: 17 August 2022 00:00
Search period end: 27 August 2022 00:00
Orbit: 588 x 603 km, 98.0° (Epoch: 17 August)

Date Brightness Start Highest point End Pass type
(mag) Time Alt. Az. Time Alt. Az. Time Alt. Az.
17 Aug ? 02:12:21 10° NNE 02:13:21 16° NE 02:13:21 16° NE visible
17 Aug ? 03:48:32 10° NNW 03:50:00 16° NW 03:50:00 16° NW visible
18 Aug ? 02:21:56 10° NNE 02:23:07 18° NE 02:23:07 18° NE visible
18 Aug ? 03:58:44 10° NNW 03:59:46 13° NW 03:59:46 13° NW visible
19 Aug ? 02:31:34 10° NNE 02:32:54 19° NNE 02:32:54 19° NNE visible
19 Aug ? 04:09:13 10° NW 04:09:33 11° NW 04:09:33 11° NW visible
20 Aug ? 02:41:15 10° NNE 02:42:40 21° NNE 02:42:40 21° NNE visible
21 Aug ? 02:50:59 10° N 02:52:26 21° N 02:52:26 21° N visible
22 Aug ? 03:00:45 10° N 03:02:11 21° N 03:02:11 21° N visible
23 Aug ? 03:10:34 10° N 03:11:57 20° N 03:11:57 20° N visible
24 Aug ? 03:20:25 10° N 03:21:42 18° NNW 03:21:42 18° NNW visible
25 Aug ? 03:30:20 10° N 03:31:27 16° NNW 03:31:27 16° NNW visible
26 Aug ? 03:40:18 10° NNW 03:41:12 14° NNW 03:41:12 14° NNW visible
